Wind_Speed
25 26 26 26 26 26 24 22 21 21 21 22 22 21 21 21 21 21 19 20 18 18 18 19 20 19 19 18 18 17 17 17 17 16 16 16 16 16 16 16 17 17 18 18 18 17 17 17 16
26 27 27 28 28 26 24 22 22 22 23 23 23 23 23 23 23 22 20 21 20 19 19 20 21 21 21 20 19 19 19 18 18 18 17 17 18 17 17 17 17 18 18 18 18 18 18 18 17
27 28 29 30 29 27 25 24 23 23 24 25 25 25 25 25 25 23 22 22 22 21 21 21 21 22 22 22 21 20 20 20 20 19 19 19 19 19 19 19 19 19 19 19 19 19 19 19 19
27 28 30 30 29 28 27 26 26 26 26 26 26 27 27 26 26 25 25 24 24 23 22 21 22 23 23 23 23 22 22 22 22 22 22 21 21 21 21 21 21 21 20 21 21 20 20 20 20
28 29 30 29 29 28 28 27 27 28 28 28 28 28 28 28 28 27 27 26 25 24 24 23 23 24 24 25 24 24 24 24 24 23 24 23 23 23 23 22 22 23 22 22 22 22 22 22 22
29 30 31 30 29 28 28 28 28 28 29 30 30 29 29 29 29 29 29 28 26 26 25 24 24 24 25 25 25 25 26 26 26 25 25 25 25 25 24 24 24 24 24 24 24 24 24 24 24
30 30 31 30 30 28 28 28 29 29 30 30 30 30 30 30 30 30 30 29 28 28 27 26 25 25 25 26 26 27 27 27 27 27 27 27 26 26 26 26 26 26 26 25 26 26 26 26 27
30 31 31 31 30 29 28 28 29 29 30 30 31 31 30 31 30 30 30 31 30 29 28 27 27 27 27 27 28 28 28 28 28 29 28 28 28 28 28 28 28 28 28 28 28 27 28 28 29
31 32 31 31 31 30 30 30 30 30 30 31 31 31 31 31 31 31 31 31 32 31 30 29 29 29 29 29 29 30 30 30 31 31 31 30 30 30 29 30 30 30 30 30 30 30 30 30 30
33 33 31 32 32 32 31 31 30 30 30 31 31 31 31 31 31 31 31 32 33 32 32 31 31 31 30 30 31 32 31 31 32 32 32 32 32 31 31 31 31 31 31 31 31 31 31 31 31
33 32 31 32 33 32 32 31 31 31 31 31 31 30 30 31 31 31 32 33 33 33 33 33 32 32 32 32 33 33 33 33 33 33 33 34 34 34 33 33 33 32 32 32 32 32 32 32 33
32 32 32 32 33 33 32 31 32 32 31 32 31 30 30 31 31 31 32 32 33 33 33 34 34 34 34 34 34 34 34 34 34 33 33 34 35 35 35 34 34 34 33 33 33 33 33 33 33
31 31 32 32 32 33 33 32 32 31 32 32 32 31 31 32 32 32 32 32 33 33 33 34 34 35 35 35 35 35 35 35 34 35 34 34 35 35 36 35 34 34 35 35 35 35 34 34 34
30 31 31 32 32 33 33 32 32 31 32 32 32 32 32 32 33 33 33 33 33 33 34 34 34 35 35 35 35 35 36 36 35 36 35 34 34 35 35 35 35 35 35 36 36 36 36 35 35
29 30 31 32 33 32 33 33 32 31 32 32 32 32 32 32 32 33 34 33 34 34 34 33 34 34 34 34 35 35 35 36 36 36 36 35 35 35 36 36 36 36 37 37 37 37 37 37 37
30 31 32 30 32 33 34 33 31 32 32 32 32 33 33 33 33 33 34 34 35 35 34 33 33 34 34 34 34 34 36 37 36 37 37 37 36 36 37 37 37 37 37 38 38 38 39 39 39
30 32 32 31 31 32 34 33 31 33 33 32 33 33 33 34 34 33 34 34 35 35 35 34 34 34 35 34 34 34 35 36 36 36 37 37 37 37 37 38 38 38 38 38 38 38 39 39 39
30 31 32 32 32 33 33 32 32 33 33 33 33 33 32 33 33 33 34 35 35 35 35 35 35 35 35 35 35 36 36 36 36 36 37 38 39 39 38 38 39 40 39 39 39 39 40 40 41
31 31 32 32 33 34 34 33 32 33 34 33 33 33 33 33 34 34 35 35 36 35 34 35 34 35 34 34 35 36 37 37 37 37 37 37 38 39 39 39 40 40 40 40 40 40 40 40 41
31 32 32 33 34 35 35 35 33 33 33 33 33 33 34 34 35 35 35 36 36 36 35 35 35 34 34 34 34 36 36 37 37 37 37 37 38 38 38 38 39 40 40 41 40 40 40 41 41
32 32 32 33 34 35 35 35 33 33 33 32 32 33 33 34 34 34 34 35 36 36 35 35 34 34 34 34 34 35 36 37 37 37 36 37 37 38 38 38 38 39 39 39 39 40 40 41 42
32 31 32 33 34 35 35 36 32 31 31 30 30 31 31 32 33 33 33 33 34 35 35 35 34 35 35 34 34 35 36 37 37 37 37 38 37 38 38 38 38 38 39 40 40 41 41 41 42
32 31 32 32 34 35 34 35 32 31 30 29 28 29 30 30 30 31 31 32 33 33 34 34 34 35 35 35 35 36 37 37 38 37 37 37 37 38 38 39 40 40 40 40 40 41 42 42 42
30 30 31 32 33 34 32 34 31 29 28 28 27 28 29 29 29 29 30 31 32 32 33 33 34 34 35 36 36 36 36 37 37 38 37 37 38 38 39 39 40 40 41 41 41 42 42 42 43
29 28 30 31 32 33 31 33 31 28 27 27 27 27 28 29 29 29 29 30 31 31 32 32 33 34 34 34 35 35 35 36 37 37 37 38 38 39 40 40 40 40 40 40 41 42 42 43 43
28 28 29 31 32 32 31 32 29 27 26 26 27 27 28 28 28 29 30 30 30 31 32 31 32 32 33 33 34 34 35 36 36 37 38 38 39 40 41 41 41 41 40 41 41 41 41 42 42
28 28 28 30 32 32 31 30 29 27 26 26 26 27 28 28 28 29 30 30 31 31 31 31 32 32 32 33 34 35 35 36 36 37 38 38 39 40 40 41 41 41 41 41 40 40 39 39 40
28 27 27 29 30 32 31 29 28 26 25 25 26 27 27 28 28 29 29 30 31 31 31 31 31 32 33 34 34 35 36 36 37 38 38 38 39 39 40 40 40 40 40 40 40 40 39 40 39
27 27 28 29 30 31 31 28 27 26 25 25 26 26 27 27 28 29 29 29 30 31 31 31 32 32 33 33 34 35 35 36 36 37 37 38 38 39 39 39 39 38 39 39 40 40 40 40 40
26 26 28 29 29 30 30 28 25 24 25 25 26 26 27 27 28 28 29 29 30 30 31 32 32 32 33 33 34 35 36 36 36 37 37 37 37 38 38 39 38 38 39 39 40 40 40 40 40
Wind_Direction
248 247 247 247 246 246 245 245 244 243 242 242 243 244 245 248 251 252 252 251 249 247 246 245 245 246 246 245 245 245 246 248 249 249 249 249 251 251 253 254 254 256 256 257 257 257 260 260 259
248 247 247 247 247 248 246 245 244 243 243 243 244 245 246 247 250 252 252 252 249 247 247 246 245 245 246 245 245 246 246 248 249 249 251 251 252 253 253 254 255 256 258 259 259 260 260 261 262
249 247 246 247 248 249 247 245 244 245 245 246 246 247 248 248 249 250 251 251 250 248 248 247 245 245 246 246 246 247 248 248 249 251 252 254 255 255 255 256 257 258 258 258 259 260 260 261 263
249 247 247 247 248 249 249 248 246 246 247 247 247 248 248 248 249 250 250 251 252 250 248 248 247 246 246 246 247 248 249 250 251 253 254 255 256 256 256 257 257 258 259 259 259 259 260 261 262
249 247 247 248 249 249 250 250 249 248 248 249 248 249 249 249 249 250 250 251 251 249 248 247 248 247 247 247 247 249 250 251 252 254 255 255 255 256 257 258 258 259 260 260 260 260 261 262 262
249 248 248 248 249 249 250 250 250 249 249 249 249 250 249 250 250 250 250 250 249 248 247 248 249 249 248 247 247 249 251 252 253 253 255 255 256 257 259 260 261 261 261 262 262 262 262 263 263
251 249 248 249 249 249 250 250 251 250 250 250 250 250 250 251 251 250 249 248 249 248 247 248 250 250 249 247 247 248 250 252 252 253 254 255 256 257 259 260 261 262 262 263 263 263 263 263 263
251 250 249 249 249 250 251 251 252 251 252 252 251 250 250 250 251 251 249 248 249 248 247 249 250 251 250 249 248 248 250 251 251 253 254 255 257 258 259 260 261 262 263 263 263 264 264 264 264
250 250 250 251 250 250 251 252 252 251 253 253 252 251 251 251 251 250 250 249 249 248 248 249 251 252 251 251 250 250 251 251 252 252 253 255 257 259 260 261 261 262 262 263 264 265 265 264 264
251 251 251 250 251 251 251 252 252 251 252 253 252 251 251 252 251 250 249 249 249 248 248 249 250 252 252 252 252 251 251 251 251 253 254 255 256 258 260 261 261 262 262 263 264 266 266 266 265
251 251 250 250 250 251 251 252 251 250 250 251 251 251 251 251 251 251 249 248 248 247 248 249 250 251 251 252 253 253 252 251 252 253 255 256 257 258 260 261 261 262 262 263 265 266 267 267 266
252 250 249 250 250 251 251 251 251 251 250 250 251 250 250 251 252 252 251 250 249 248 249 250 251 251 251 252 252 253 252 252 253 254 256 257 257 257 259 260 261 261 262 263 265 267 267 267 267
252 249 249 249 249 251 251 251 250 251 251 251 252 251 252 251 251 252 253 252 250 250 250 252 252 252 252 253 251 252 252 253 254 255 257 259 259 258 258 259 260 261 262 263 264 265 266 267 267
252 251 249 250 251 251 251 251 251 251 251 252 253 254 253 252 251 251 253 253 252 252 252 253 253 253 253 253 252 251 252 253 254 256 256 258 259 260 260 260 261 262 263 264 264 265 266 266 267
254 252 250 249 250 251 252 251 252 252 252 253 254 255 254 253 252 251 252 253 254 253 253 254 255 254 253 253 253 252 252 253 255 257 257 258 260 261 262 263 263 264 265 266 265 266 266 266 266
254 252 250 250 251 251 252 252 252 252 253 254 254 254 255 254 253 251 251 253 254 254 255 255 254 254 253 252 253 253 253 254 256 258 259 260 261 262 263 264 265 265 267 267 267 266 267 267 266
256 254 252 250 250 251 252 252 252 253 254 254 254 255 255 255 254 253 252 253 254 253 253 255 255 254 253 252 252 253 254 255 256 258 259 261 262 263 264 264 266 266 267 268 269 269 268 267 267
258 257 254 252 252 252 253 253 253 254 254 253 254 255 255 255 255 254 253 253 253 253 253 254 254 254 254 253 252 254 255 256 256 258 259 261 263 264 266 266 266 266 267 268 268 269 269 268 269
257 257 257 254 253 254 254 253 254 255 254 254 254 256 256 256 255 254 254 253 252 253 253 253 254 254 254 253 254 254 255 256 256 257 260 261 263 264 265 266 266 267 268 268 268 268 269 269 269
257 257 258 256 254 255 256 255 254 255 255 256 256 256 256 255 255 255 253 252 252 252 253 252 253 253 253 254 254 254 255 255 256 258 260 261 262 264 264 266 267 268 268 268 268 268 269 269 270
255 257 257 258 256 255 257 255 255 255 256 257 256 256 256 256 255 255 254 252 252 252 252 252 252 253 253 253 255 256 256 256 257 259 260 262 263 264 265 266 269 269 268 268 269 270 270 270 270
256 257 257 257 256 255 256 257 253 255 256 257 256 256 256 256 255 254 254 253 252 252 251 252 253 253 252 253 256 258 257 257 258 259 261 263 264 265 266 267 268 270 269 269 270 271 272 272 272
256 256 257 257 257 257 256 258 254 254 255 256 256 256 255 255 254 253 253 253 253 252 252 252 253 253 254 254 256 258 258 257 257 259 260 262 264 266 267 269 269 269 270 271 272 272 272 272 272
254 256 257 257 257 257 255 257 256 254 255 256 257 256 254 253 252 251 251 251 252 253 252 251 252 254 256 257 258 258 257 257 258 259 260 262 263 265 267 269 271 270 271 272 272 273 273 273 273
253 255 256 256 255 257 256 256 256 255 255 256 256 256 254 253 252 251 251 252 252 253 253 252 254 254 255 257 258 258 258 258 258 260 261 263 264 266 269 270 270 271 271 272 272 273 273 273 274
255 255 256 258 258 258 258 257 256 256 257 257 256 255 254 252 251 251 251 251 252 253 253 253 254 255 255 256 258 259 259 258 259 260 262 264 266 267 269 270 269 270 271 272 273 274 274 274 274
254 256 258 260 259 260 259 258 256 255 256 258 257 256 254 253 253 253 252 250 252 253 254 255 255 255 255 256 258 259 260 261 261 261 263 265 266 267 269 269 269 270 271 272 273 274 274 274 274
254 257 258 259 259 260 259 257 257 255 258 260 259 256 255 254 254 255 254 253 254 255 255 255 255 255 256 257 258 260 261 262 263 263 264 265 266 268 269 269 269 270 270 271 272 273 273 273 275
253 254 254 257 258 258 258 258 258 259 260 261 259 258 257 257 256 257 257 256 255 255 255 255 256 257 257 259 260 261 262 263 263 263 264 265 267 269 270 269 269 270 271 271 272 272 273 274 276
254 254 253 254 256 257 258 257 258 259 259 260 260 259 258 259 259 259 258 257 256 256 255 256 257 258 258 260 261 263 264 264 265 265 265 266 268 269 270 270 270 270 271 272 272 272 272 274 275
Height
5810 5811 5813 5814 5815 5816 5817 5820 5821 5822 5823 5824 5825 5826 5828 5829 5830 5834 5833 5832 5833 5834 5835 5835 5837 5838 5839 5840 5841 5842 5843 5844 5845 5845 5846 5847 5847 5848 5848 5849 5849 5850 5850 5850 5850 5851 5851 5851 5851
5805 5806 5808 5809 5809 5811 5814 5816 5817 5818 5819 5819 5820 5821 5823 5824 5825 5827 5828 5828 5829 5830 5831 5832 5833 5834 5835 5836 5838 5839 5840 5841 5842 5843 5843 5844 5845 5845 5846 5846 5846 5847 5847 5847 5847 5848 5848 5848 5848
5799 5801 5802 5803 5804 5807 5809 5811 5812 5813 5813 5815 5816 5817 5818 5820 5821 5822 5823 5824 5825 5826 5827 5828 5829 5830 5831 5833 5834 5835 5836 5837 5838 5839 5840 5841 5842 5842 5843 5843 5843 5844 5844 5844 5844 5844 5845 5845 5845
5794 5795 5796 5798 5799 5802 5804 5806 5806 5807 5808 5809 5811 5812 5813 5815 5816 5818 5819 5820 5820 5821 5822 5824 5825 5826 5827 5828 5830 5831 5832 5833 5834 5835 5836 5837 5838 5839 5839 5840 5840 5840 5840 5841 5841 5841 5841 5841 5841
5788 5789 5790 5792 5794 5796 5798 5800 5801 5802 5803 5804 5806 5807 5808 5809 5810 5812 5813 5814 5815 5816 5818 5819 5820 5821 5823 5824 5825 5826 5828 5829 5830 5831 5832 5833 5834 5834 5835 5835 5836 5836 5836 5837 5837 5837 5837 5837 5837
5782 5783 5785 5786 5788 5790 5792 5794 5795 5796 5797 5798 5800 5801 5802 5804 5805 5807 5808 5809 5810 5811 5812 5814 5815 5816 5818 5819 5820 5821 5823 5824 5825 5826 5827 5828 5829 5830 5830 5831 5831 5832 5832 5832 5832 5832 5833 5833 5833
5776 5777 5778 5781 5782 5784 5787 5787 5788 5790 5791 5793 5794 5795 5796 5798 5799 5800 5802 5803 5805 5806 5807 5808 5810 5811 5812 5814 5815 5816 5817 5818 5820 5821 5822 5823 5824 5824 5825 5826 5826 5826 5827 5827 5827 5827 5827 5828 5828
5769 5771 5772 5774 5776 5779 5781 5781 5782 5783 5784 5786 5787 5789 5791 5792 5792 5794 5796 5797 5799 5800 5801 5803 5804 5805 5806 5808 5809 5810 5811 5812 5814 5815 5816 5817 5818 5819 5819 5820 5821 5821 5821 5821 5822 5822 5822 5822 5822
5762 5764 5765 5768 5770 5773 5774 5774 5775 5777 5778 5779 5780 5782 5784 5785 5786 5788 5789 5791 5792 5794 5795 5796 5798 5799 5800 5801 5803 5804 5805 5806 5808 5809 5810 5811 5812 5813 5813 5814 5815 5815 5815 5815 5815 5815 5816 5816 5816
5754 5756 5760 5762 5763 5765 5766 5768 5769 5770 5771 5772 5773 5775 5776 5778 5779 5781 5783 5784 5785 5787 5788 5790 5791 5792 5794 5795 5796 5797 5798 5800 5801 5802 5804 5805 5806 5806 5807 5807 5808 5808 5809 5809 5809 5809 5809 5809 5809
5746 5750 5753 5754 5755 5757 5759 5760 5762 5763 5765 5765 5767 5768 5769 5771 5772 5774 5775 5777 5778 5780 5781 5783 5784 5785 5786 5788 5789 5790 5791 5792 5794 5795 5797 5798 5799 5800 5800 5800 5801 5801 5802 5802 5802 5802 5802 5802 5802
5739 5742 5744 5746 5747 5749 5751 5753 5754 5756 5758 5758 5759 5760 5762 5764 5765 5766 5768 5769 5771 5773 5774 5775 5776 5777 5779 5780 5782 5783 5784 5785 5787 5788 5789 5791 5792 5792 5793 5794 5794 5794 5795 5795 5795 5795 5795 5795 5795
5732 5735 5737 5738 5740 5742 5743 5745 5746 5749 5750 5750 5751 5753 5755 5756 5757 5759 5760 5762 5764 5765 5766 5767 5768 5769 5771 5772 5774 5775 5777 5778 5780 5781 5782 5783 5784 5785 5785 5786 5786 5787 5787 5788 5788 5788 5788 5788 5787
5725 5727 5729 5731 5732 5733 5735 5737 5739 5742 5742 5743 5744 5745 5747 5748 5750 5751 5752 5754 5756 5757 5758 5759 5760 5761 5763 5764 5766 5767 5769 5770 5772 5773 5774 5775 5776 5777 5777 5778 5778 5779 5779 5780 5780 5780 5780 5780 5779
5717 5719 5721 5723 5724 5725 5726 5729 5732 5733 5734 5735 5736 5738 5739 5740 5741 5743 5745 5746 5748 5749 5750 5751 5752 5753 5755 5756 5758 5760 5761 5762 5764 5765 5766 5767 5768 5769 5770 5770 5771 5771 5771 5771 5771 5771 5771 5771 5771
5709 5710 5713 5716 5716 5717 5719 5722 5724 5724 5725 5727 5728 5729 5731 5732 5733 5735 5736 5738 5739 5740 5742 5743 5744 5745 5747 5748 5750 5752 5753 5754 5756 5757 5758 5759 5760 5761 5762 5762 5762 5762 5762 5762 5763 5762 5762 5762 5762
5701 5702 5705 5708 5709 5709 5710 5713 5715 5716 5717 5719 5720 5721 5722 5724 5725 5726 5728 5729 5730 5732 5733 5734 5735 5737 5739 5740 5742 5743 5745 5746 5748 5749 5750 5751 5752 5752 5753 5754 5754 5754 5754 5754 5754 5754 5753 5753 5752
5694 5695 5697 5699 5700 5700 5701 5704 5706 5707 5708 5710 5712 5713 5714 5715 5717 5717 5718 5720 5721 5723 5724 5725 5727 5728 5730 5731 5733 5734 5736 5737 5739 5740 5741 5742 5743 5744 5744 5745 5745 5745 5745 5745 5745 5744 5743 5743 5742
5685 5686 5688 5691 5691 5691 5693 5695 5698 5698 5699 5701 5703 5704 5705 5707 5708 5708 5709 5711 5712 5714 5716 5717 5718 5720 5721 5723 5724 5725 5727 5729 5730 5732 5733 5734 5734 5735 5735 5736 5736 5735 5735 5735 5735 5734 5734 5733 5733
5676 5677 5679 5682 5682 5682 5683 5685 5688 5689 5691 5692 5694 5695 5696 5697 5698 5699 5700 5701 5703 5705 5707 5708 5709 5711 5713 5714 5715 5717 5718 5720 5722 5723 5724 5725 5725 5725 5726 5726 5726 5726 5726 5725 5725 5725 5724 5724 5723
5668 5669 5671 5672 5673 5673 5674 5676 5679 5681 5681 5683 5684 5685 5686 5688 5689 5690 5691 5693 5695 5697 5698 5700 5701 5702 5704 5705 5707 5708 5709 5711 5713 5714 5715 5716 5716 5716 5717 5717 5717 5717 5716 5716 5715 5715 5714 5714 5713
5659 5661 5662 5662 5663 5663 5665 5665 5671 5672 5672 5674 5675 5676 5678 5679 5680 5682 5683 5684 5686 5688 5690 5691 5693 5694 5695 5697 5698 5700 5701 5702 5704 5705 5706 5707 5707 5707 5707 5707 5707 5707 5707 5706 5705 5705 5704 5703 5703
5651 5652 5653 5653 5653 5654 5656 5655 5661 5663 5664 5666 5667 5668 5669 5671 5672 5674 5675 5676 5678 5679 5681 5682 5684 5686 5687 5688 5690 5691 5692 5693 5694 5696 5697 5697 5698 5698 5698 5698 5698 5697 5697 5696 5696 5695 5694 5693 5692
5641 5643 5643 5643 5644 5645 5648 5648 5651 5655 5657 5658 5659 5660 5661 5662 5664 5665 5667 5668 5669 5671 5672 5674 5675 5677 5679 5680 5681 5682 5683 5684 5685 5686 5687 5688 5688 5688 5688 5688 5688 5687 5687 5686 5686 5685 5684 5683 5682
5633 5634 5634 5634 5634 5636 5640 5639 5643 5647 5649 5650 5651 5652 5653 5654 5656 5657 5659 5660 5661 5663 5664 5665 5667 5668 5670 5671 5672 5672 5673 5675 5676 5677 5678 5678 5679 5679 5679 5678 5678 5677 5677 5676 5675 5674 5673 5672 5671
5624 5626 5627 5627 5627 5629 5630 5631 5637 5639 5640 5641 5642 5643 5644 5646 5647 5649 5651 5652 5653 5654 5656 5657 5658 5659 5661 5662 5663 5663 5664 5665 5666 5667 5668 5668 5669 5669 5668 5668 5667 5667 5666 5665 5665 5664 5663 5662 5661
5616 5617 5619 5619 5619 5620 5622 5625 5629 5631 5632 5633 5634 5635 5636 5638 5639 5641 5642 5643 5645 5646 5647 5649 5649 5651 5652 5652 5653 5654 5655 5656 5656 5657 5658 5658 5658 5658 5658 5657 5657 5656 5656 5655 5654 5654 5653 5651 5650
5609 5610 5610 5610 5611 5612 5614 5617 5621 5623 5625 5626 5626 5627 5628 5630 5631 5632 5633 5635 5636 5637 5639 5639 5640 5641 5642 5643 5644 5645 5645 5646 5646 5647 5648 5648 5648 5648 5647 5647 5646 5646 5645 5644 5643 5643 5642 5641 5639
5601 5602 5602 5603 5604 5605 5607 5613 5614 5616 5617 5618 5619 5619 5620 5621 5622 5624 5625 5626 5627 5628 5630 5631 5632 5632 5633 5634 5634 5635 5635 5636 5636 5637 5637 5637 5637 5637 5637 5636 5636 5635 5635 5634 5633 5632 5631 5630 5629
5592 5594 5595 5596 5597 5598 5599 5606 5607 5608 5609 5610 5611 5611 5612 5613 5614 5615 5616 5617 5618 5619 5620 5621 5622 5623 5624 5624 5625 5625 5625 5626 5626 5626 5626 5627 5627 5626 5626 5625 5625 5624 5624 5623 5622 5621 5620 5619 5618